Theta_e
289 287 286 286 288 287 288 287 285 283 288 285 284 282 283 282 283 283 283 286 285 287 287 286 285 284 288 290 292 292 290 289 290 291 292 292 292 292 292 292 293 294 296 298 296 297 297 297 298 302 305 308 311 313 314 315 315 316 317 317 317 320 321 320 320 319 320 319 319 321 323 323 324 322 322 322 322 322 324 324 326 326 326 323 321 319
292 287 286 287 288 289 289 284 285 286 285 287 284 283 283 284 285 285 287 286 284 288 285 282 284 288 289 291 291 291 289 291 292 292 291 292 293 293 293 293 293 294 294 294 296 295 293 295 296 297 301 304 306 308 312 314 315 316 316 316 318 317 318 320 321 320 320 322 322 322 322 323 323 321 320 321 320 320 320 320 320 321 325 325 323 321
287 287 287 287 286 285 283 284 284 286 284 281 284 282 283 283 281 285 286 286 286 288 284 282 285 288 289 290 291 290 291 291 291 292 293 293 293 293 292 293 293 292 294 292 293 293 294 295 295 296 299 303 305 307 310 313 314 314 315 316 317 316 317 318 320 320 320 320 320 322 319 322 319 320 323 323 320 319 319 318 318 317 318 320 321 322
285 285 288 287 287 288 283 283 285 284 282 282 281 282 282 281 285 285 286 286 286 285 288 286 286 289 288 287 288 291 291 290 289 289 290 290 292 293 293 292 292 292 292 292 293 293 293 293 293 296 298 300 304 305 307 310 312 313 314 315 315 315 316 317 317 317 319 318 312 308 311 314 317 316 312 314 308 312 313 315 313 313 315 317 319 320
286 286 285 286 287 290 286 284 286 285 285 283 283 280 281 283 283 281 284 283 282 284 283 285 285 287 282 287 291 287 283 284 286 285 287 289 290 292 292 291 291 292 293 293 294 293 292 291 292 294 297 300 302 304 306 308 311 313 314 315 315 315 315 316 315 315 313 309 308 307 307 308 309 309 311 314 313 312 311 312 313 315 313 315 317 317
286 286 285 287 286 286 286 284 285 287 283 285 283 283 283 285 285 282 284 285 281 286 283 285 284 279 279 279 283 286 283 287 285 287 290 291 288 287 288 290 291 292 293 294 294 294 293 292 292 294 297 300 302 304 306 308 310 312 312 312 313 313 313 313 313 313 311 312 312 310 312 310 309 311 309 311 313 313 313 315 317 313 313 314 314 315
285 285 286 287 287 286 286 286 285 286 282 283 285 284 283 284 284 283 283 283 281 281 284 281 283 277 280 282 285 281 282 285 287 286 289 289 288 287 288 289 288 289 289 289 290 291 291 292 292 293 296 300 302 304 305 306 308 310 310 311 311 312 311 312 311 311 311 312 312 313 315 315 314 314 313 313 314 316 315 316 314 314 311 312 313 314
285 285 285 286 285 285 284 283 285 286 285 284 284 283 284 285 285 284 284 282 280 280 284 279 278 279 280 285 282 281 282 285 286 289 290 289 284 285 285 286 286 287 287 288 289 290 290 290 291 293 295 299 302 302 303 305 306 308 308 309 310 310 310 310 310 309 311 313 312 312 313 314 314 314 314 310 311 310 311 312 313 311 310 310 311 312
284 285 284 285 285 283 285 283 284 286 284 283 283 284 285 286 284 282 283 281 281 282 281 278 285 281 277 282 281 281 288 287 287 288 289 287 286 285 286 287 287 287 286 286 288 290 290 291 291 292 294 297 299 301 304 305 306 307 307 307 307 308 308 307 308 309 309 312 312 312 312 311 311 311 309 305 305 308 307 310 308 311 311 309 309 310
288 286 286 288 287 285 283 284 283 286 287 284 283 283 282 281 281 281 280 283 278 278 276 280 281 279 280 280 281 281 286 285 287 289 288 287 287 286 287 288 288 289 289 288 288 289 290 292 292 293 294 296 299 299 301 301 303 304 305 305 305 306 307 306 306 307 308 309 309 310 309 310 310 306 304 304 304 304 303 307 305 307 308 309 309 308
288 291 289 286 286 285 285 285 284 285 285 285 284 287 284 281 279 278 277 276 277 275 276 277 277 280 278 281 284 286 286 287 288 286 284 287 285 286 286 287 289 289 290 290 289 289 290 290 291 291 295 297 296 297 299 301 303 303 304 305 305 306 305 304 305 306 306 307 307 309 309 309 309 306 305 303 301 301 300 303 303 304 306 305 307 307
287 287 289 286 286 285 286 286 286 284 284 285 283 281 285 283 278 277 271 275 273 270 272 275 278 277 277 278 281 282 282 282 285 288 291 289 287 288 288 288 288 288 289 289 289 290 289 293 294 295 296 296 295 296 298 299 300 302 303 303 304 302 303 302 304 304 305 306 306 307 308 308 308 307 305 305 305 302 302 302 302 302 302 302 303 304
286 287 286 289 288 287 285 287 284 285 282 283 283 285 281 271 270 275 271 275 274 271 278 277 277 278 280 282 283 281 285 285 283 287 288 286 287 287 288 289 287 288 288 288 289 289 289 291 293 295 295 294 296 298 298 299 300 301 301 302 303 302 301 302 302 303 304 304 305 305 306 306 306 306 305 305 305 303 303 302 302 301 301 301 301 302
283 282 285 287 288 288 287 286 283 284 283 283 285 280 276 270 269 268 264 263 268 272 276 279 277 277 279 282 286 290 290 287 286 285 286 287 288 289 289 288 287 288 287 288 288 288 288 289 290 291 293 294 295 296 296 297 298 299 300 300 302 303 301 301 301 302 302 303 305 305 305 306 305 304 304 305 305 304 304 303 303 302 302 301 302 302
278 278 284 286 286 288 287 285 289 286 284 284 283 286 282 272 267 269 265 273 272 272 273 275 275 275 277 284 286 286 287 286 285 284 284 285 285 285 286 286 285 287 289 288 288 290 290 290 290 291 292 293 294 294 295 296 297 297 299 299 300 301 299 299 300 301 301 303 303 303 304 304 304 304 304 304 304 304 303 303 303 303 303 303 302 302
282 281 284 285 286 284 288 286 285 286 286 282 280 283 281 281 277 271 265 267 264 271 271 274 275 277 281 283 286 287 286 286 286 285 285 287 288 286 287 287 287 287 288 289 289 289 289 290 289 289 290 292 293 294 295 296 296 297 299 299 300 302 300 299 299 300 301 302 302 302 302 302 302 302 303 303 302 303 304 303 303 303 302 302 303 303
280 281 284 284 286 286 288 286 287 287 284 284 283 277 281 281 279 271 269 272 271 269 272 270 277 281 281 284 291 282 283 287 286 284 284 286 287 286 288 288 287 288 287 288 289 290 291 290 290 290 291 291 292 293 296 297 297 299 299 298 299 299 298 298 299 300 300 300 300 300 300 301 301 301 302 302 302 302 302 303 303 303 302 302 302 302
283 280 284 285 287 288 286 286 286 284 286 284 279 282 283 283 282 279 275 268 265 270 272 272 276 278 277 281 283 283 286 287 285 286 284 284 284 286 289 288 289 290 289 288 288 290 290 291 291 291 291 291 293 295 295 296 296 298 298 299 299 299 298 298 298 299 299 299 299 299 299 300 300 301 301 302 302 302 301 301 302 302 301 301 301 302
285 279 284 284 285 288 285 287 288 287 286 284 282 285 286 280 279 277 275 269 268 267 266 269 273 274 278 282 281 284 285 288 288 285 285 287 286 288 286 286 287 286 287 287 289 290 289 290 290 290 291 291 291 293 294 295 295 296 296 297 298 299 299 299 298 298 299 299 299 299 299 299 299 300 300 301 301 301 301 301 301 301 301 301 301 300
285 280 280 285 286 287 286 287 283 285 287 285 286 284 285 282 277 275 277 273 274 268 265 269 269 280 279 280 281 288 282 285 284 284 286 287 288 287 286 288 290 292 292 291 288 289 290 290 290 290 291 291 291 292 293 294 294 295 296 296 297 297 296 296 297 297 297 298 298 298 298 298 299 299 299 299 300 300 300 300 300 300 300 301 300 300
284 283 275 283 285 285 284 285 284 286 283 281 281 281 284 278 281 281 276 273 275 267 265 265 269 273 279 281 283 288 288 284 283 285 285 285 285 285 288 290 289 288 291 292 291 288 290 291 289 289 289 289 289 290 291 293 295 296 295 296 296 297 297 296 296 296 297 297 297 297 297 298 297 297 298 298 298 299 300 300 299 300 300 299 298 298
284 282 280 281 282 282 282 284 284 284 287 285 284 282 285 281 279 277 277 275 266 273 266 264 273 274 282 281 286 287 286 282 282 285 287 285 283 286 288 287 286 290 289 290 288 286 289 290 290 289 287 287 289 289 290 292 292 293 295 296 296 296 296 297 296 296 296 296 297 296 297 297 297 297 297 297 298 298 298 298 298 298 297 298 298 297
286 282 283 277 281 284 285 285 283 283 284 285 284 283 285 283 281 275 274 276 270 273 270 268 269 278 283 281 282 284 283 283 281 282 284 282 282 284 285 286 286 286 289 288 286 287 287 287 288 288 287 288 289 290 289 289 292 294 294 294 295 295 296 297 297 296 296 296 296 296 296 295 294 294 294 295 296 296 296 296 296 296 297 297 297 296
290 282 280 279 281 282 284 284 283 283 285 287 285 283 283 285 285 282 276 276 277 272 272 270 268 278 281 281 281 282 282 281 281 280 282 282 283 286 287 288 288 288 288 287 287 287 287 286 286 287 288 290 291 290 290 290 291 292 293 294 294 294 295 295 295 295 295 295 295 294 293 293 293 292 293 293 294 294 295 295 295 294 295 296 295 295
285 284 285 275 274 278 280 285 285 285 286 284 283 283 284 281 279 278 276 272 272 275 277 276 271 280 282 281 282 282 282 283 283 283 281 284 288 288 289 289 288 287 287 288 288 287 287 288 289 290 289 289 290 290 289 290 291 291 292 292 292 293 293 293 292 293 293 293 293 292 292 291 291 291 292 292 293 293 293 292 293 293 293 294 293 294
286 283 284 279 276 275 273 274 276 281 284 283 279 281 283 285 280 280 277 276 275 273 276 271 271 283 280 282 287 285 284 285 285 282 282 283 287 290 288 287 287 287 288 288 288 288 290 291 289 288 288 289 289 288 289 289 290 290 291 291 291 291 291 291 290 292 292 292 292 292 290 290 290 291 291 292 291 291 291 291 291 292 292 292 294 293
282 283 285 285 283 281 283 285 286 285 282 281 283 283 283 284 284 283 280 276 279 277 277 279 282 284 282 283 284 286 284 286 287 287 288 288 286 284 283 284 285 286 288 287 287 288 287 287 288 289 288 289 288 287 288 289 290 290 290 290 289 289 290 290 290 291 291 291 291 291 290 290 290 291 291 290 291 290 290 290 291 291 291 291 291 292
281 283 285 285 285 286 287 284 284 288 285 286 284 282 284 284 283 283 282 282 282 279 275 282 283 281 284 280 282 284 284 283 284 285 288 287 288 288 287 286 287 286 285 285 286 287 290 289 288 288 288 288 289 288 287 287 288 289 289 289 288 289 289 289 290 290 290 290 290 290 290 290 290 290 290 290 290 290 290 290 290 290 291 290 290 291
285 284 286 284 285 286 283 282 284 286 286 286 285 284 283 284 283 283 284 286 283 283 282 286 285 282 286 285 287 286 286 289 289 289 290 288 287 285 285 287 288 287 286 286 288 286 287 289 290 289 289 289 288 287 287 287 287 287 287 287 288 288 289 289 290 290 290 289 289 290 290 289 289 289 289 289 289 289 289 289 289 289 289 289 290 290
287 283 285 284 285 285 282 282 283 285 283 283 284 284 285 284 283 285 286 286 285 285 287 287 285 284 288 286 287 287 288 288 287 285 286 288 290 287 286 286 287 289 288 289 289 288 288 288 288 288 288 289 290 290 288 288 287 287 288 288 287 288 289 288 289 289 289 289 289 289 289 289 289 289 288 288 288 289 288 288 288 288 288 289 289 290
287 281 285 280 280 281 281 280 282 282 282 281 282 283 284 284 285 286 287 286 285 285 287 286 283 282 286 287 288 289 287 288 288 288 289 289 288 287 287 287 287 288 289 290 290 289 289 288 287 287 288 289 289 289 289 289 288 286 286 287 287 287 287 287 288 288 288 289 289 289 288 288 288 288 288 288 288 288 287 288 288 288 288 288 288 288
286 281 279 279 279 277 277 281 278 277 277 277 278 281 283 283 282 284 283 287 284 284 285 283 283 283 288 287 288 289 287 288 289 290 290 290 289 288 287 288 288 288 289 290 289 289 289 289 289 288 289 289 288 288 288 288 287 286 286 286 286 286 285 287 287 288 288 288 288 288 288 288 287 287 287 286 287 287 287 287 287 287 287 287 287 288
284 281 281 279 279 278 277 276 278 279 279 277 277 282 284 285 286 287 287 286 286 288 284 282 284 290 286 287 288 288 288 289 288 289 290 290 290 290 290 290 289 289 289 289 290 289 289 289 289 289 288 288 287 287 287 286 286 287 287 287 288 286 286 287 287 287 287 287 287 287 287 286 286 286 286 286 286 287 286 286 286 286 286 287 288 287
284 286 282 283 280 278 274 276 279 278 273 277 287 289 287 285 285 284 284 286 287 287 287 289 290 288 285 285 289 289 289 290 292 293 294 295 293 289 288 287 288 288 287 287 287 288 289 289 289 288 288 287 287 286 286 285 286 286 286 286 285 286 286 286 286 286 287 286 286 286 285 285 285 286 286 285 285 285 285 285 286 286 287 286 286 286
285 285 281 279 280 277 275 278 277 274 276 287 288 289 289 290 288 287 288 289 289 289 289 289 289 288 284 287 290 291 292 293 293 293 292 287 288 290 291 289 288 287 288 288 288 289 288 287 287 287 287 286 285 284 284 285 285 284 285 285 285 285 285 285 286 286 286 286 285 285 285 285 285 285 285 285 284 284 284 285 285 285 285 286 286 286
284 284 277 276 276 274 272 273 272 275 284 283 283 284 285 287 286 286 285 288 289 289 289 289 290 291 289 286 288 287 288 287 287 288 289 288 287 290 287 291 290 287 288 288 288 288 288 288 287 287 286 284 284 285 284 285 283 284 285 284 285 285 286 286 287 286 286 287 286 285 285 284 285 285 284 284 283 283 285 284 285 285 286 285 286 286
287 285 282 280 276 278 274 277 276 277 280 281 284 282 286 284 284 285 282 286 290 289 289 289 290 291 291 288 286 286 286 288 288 292 290 288 288 288 291 291 290 288 288 286 286 287 286 285 285 285 284 284 284 284 284 283 284 285 285 285 285 286 286 286 287 286 285 285 285 285 285 284 284 284 283 283 282 283 284 284 284 285 283 284 286 286
284 284 282 283 277 277 274 269 270 273 276 280 285 286 288 289 290 290 287 286 288 289 291 291 290 291 291 286 285 284 287 289 287 290 293 288 289 290 287 286 285 286 286 286 284 284 284 284 284 284 284 285 284 283 283 283 284 285 285 285 285 286 285 286 286 285 285 285 285 285 285 284 283 283 283 281 282 284 284 284 283 284 283 285 286 286
282 281 281 283 276 275 273 274 272 272 278 285 287 285 284 285 288 287 283 282 288 287 290 291 291 291 290 287 285 286 287 284 287 291 288 288 287 285 286 285 285 284 284 284 284 285 284 284 284 284 284 285 285 284 282 282 284 285 285 284 284 285 285 285 285 285 284 285 284 284 284 283 282 282 282 282 283 283 284 285 285 285 282 284 284 285
282 279 279 277 272 272 276 275 275 273 278 283 283 282 284 286 289 286 275 277 289 289 288 289 289 290 289 287 287 288 288 286 288 291 285 284 284 284 284 286 285 284 284 283 283 283 283 283 284 285 285 285 284 282 282 282 284 283 284 284 284 284 284 284 284 284 283 283 283 283 282 281 280 280 280 282 283 282 283 283 283 283 283 283 283 284
279 276 277 280 280 279 280 273 271 276 280 281 280 279 284 289 289 280 276 285 284 285 286 288 288 289 289 286 288 287 290 290 287 284 283 284 285 284 283 283 283 284 284 283 283 283 284 284 284 284 283 283 282 282 281 282 284 283 283 283 283 283 283 283 283 283 283 282 282 281 280 279 279 280 281 280 282 282 282 282 282 282 281 282 283 282
277 278 273 277 280 279 278 278 279 274 278 283 281 284 287 287 278 279 287 283 283 285 286 288 289 289 289 287 289 290 285 282 284 283 284 283 283 282 283 283 283 283 283 283 282 283 283 283 284 284 284 283 282 282 281 282 283 282 282 282 282 282 282 282 282 281 281 281 281 280 280 280 280 279 281 280 279 279 280 281 280 281 281 282 281 281
283 281 277 279 279 275 274 274 277 275 283 284 286 284 285 284 282 284 284 282 282 281 284 285 287 287 287 285 286 284 283 283 283 283 283 283 283 283 282 283 282 282 282 282 282 282 283 283 283 283 282 282 282 282 282 281 281 281 281 281 281 281 281 281 280 280 280 280 280 281 281 281 281 281 280 280 279 277 279 280 279 279 278 279 280 280
288 283 281 282 284 280 279 277 277 285 285 287 290 286 286 287 285 283 285 288 282 281 283 284 283 283 285 286 284 283 283 282 282 282 282 282 282 282 281 282 281 281 281 281 281 281 281 282 282 282 282 282 281 281 281 280 280 280 280 280 281 281 280 280 280 279 280 280 281 281 282 281 281 280 279 279 279 278 278 279 279 279 280 280 280 280
287 287 288 285 287 285 282 284 286 282 284 284 282 282 281 283 281 281 282 284 285 283 280 284 283 281 284 285 285 284 283 283 283 282 282 281 281 281 280 280 280 280 280 280 280 280 280 281 281 281 281 281 280 280 280 280 279 279 278 280 280 279 279 279 278 279 279 279 280 280 281 280 280 280 280 279 279 279 280 279 277 280 279 278 280 280
284 285 284 288 286 286 286 286 285 282 281 281 282 281 280 280 281 281 283 283 281 282 282 283 282 283 284 285 284 282 282 282 281 281 280 280 280 279 279 279 279 279 279 279 279 279 279 279 279 279 279 280 280 280 280 279 279 277 278 279 278 278 277 277 278 278 279 279 279 279 279 279 280 281 281 280 279 279 278 278 278 278 279 278 279 279
284 284 287 286 286 287 284 285 284 282 280 281 280 280 280 280 280 280 282 282 282 282 282 282 283 283 284 284 284 282 281 281 280 280 279 279 279 278 278 277 277 277 277 277 278 277 278 277 278 278 278 278 278 279 279 279 279 278 278 277 276 275 275 276 276 276 277 277 277 278 278 277 278 278 279 278 279 278 277 277 277 277 278 278 278 279
286 285 287 282 284 286 283 282 282 281 281 281 280 280 279 280 280 280 280 280 279 279 279 280 282 282 282 282 282 281 280 280 279 279 278 278 277 277 276 276 276 276 276 276 275 275 275 276 276 276 276 277 277 277 278 277 277 277 276 274 273 272 272 273 274 274 274 275 276 276 277 276 276 276 277 277 277 277 278 278 277 277 278 278 279 279
286 288 285 284 283 283 283 282 281 281 282 280 280 279 279 279 280 279 279 278 277 276 275 275 276 278 280 279 279 279 277 277 278 278 277 277 276 275 275 274 275 275 275 274 273 273 273 274 274 275 275 276 276 276 276 276 276 275 273 271 271 270 269 270 271 271 272 273 274 274 275 275 275 275 275 276 276 276 277 277 277 278 278 278 279 279
287 286 286 284 280 281 283 284 283 282 282 281 279 279 278 279 279 279 279 278 277 276 275 273 273 273 273 275 277 277 276 275 276 276 275 275 274 273 273 273 274 274 274 274 273 273 273 274 274 274 274 275 276 275 275 275 275 273 271 270 269 268 267 268 268 269 270 271 272 272 273 273 274 274 274 275 275 275 275 276 279 279 278 278 280 281
286 287 286 285 285 284 286 286 286 286 283 283 281 279 279 279 279 279 278 278 277 277 277 275 273 272 271 271 273 274 274 273 274 274 273 273 272 272 272 272 273 273 273 272 272 272 272 273 274 274 274 275 274 273 273 273 273 272 270 269 269 268 267 267 267 268 268 269 269 271 271 272 272 273 273 273 274 274 274 275 277 280 281 282 281 282
Wind_Speed
1 5 7 9 9 8 7 7 5 5 8 5 4 5 5 7 1 3 2 2 0 1 6 5 6 6 12 11 11 8 2 4 6 9 9 8 8 8 8 9 10 10 15 1 5 6 7 8 8 8 8 10 10 10 11 11 12 12 12 11 14 11 10 9 9 8 9 9 7 7 10 10 8 6 6 5 4 4 4 5 6 8 7 9 9 8
3 5 9 6 7 10 8 6 7 9 4 8 6 6 2 0 2 1 0 2 3 2 2 1 3 11 14 11 11 7 2 10 11 10 10 11 10 8 9 10 11 12 4 3 6 6 4 7 6 6 7 9 11 12 12 14 15 13 12 13 12 9 10 11 12 10 10 10 10 9 9 8 7 7 7 7 5 6 5 5 5 3 6 9 11 11
2 10 3 4 3 8 6 4 3 6 6 4 6 4 4 3 2 2 1 1 3 2 6 2 2 10 11 10 11 7 9 7 7 8 7 7 9 8 8 10 10 6 10 4 9 6 7 6 6 7 7 9 12 10 13 13 11 11 11 12 11 10 11 11 11 10 11 9 7 8 5 8 5 4 6 6 4 5 5 4 4 3 3 4 5 7
4 5 5 4 7 9 3 3 7 7 6 6 6 5 6 4 5 3 3 0 3 2 2 0 3 10 8 7 12 12 7 7 7 7 10 7 10 11 10 6 7 8 9 10 9 10 8 6 6 6 8 10 9 8 9 10 12 11 11 11 11 11 11 10 11 11 9 7 4 2 3 3 4 4 3 3 2 3 3 4 4 4 4 3 4 5
7 1 1 7 7 11 6 2 6 5 3 1 4 4 4 3 3 3 4 1 1 0 2 0 4 9 4 7 8 3 3 3 7 6 9 10 11 9 6 8 8 11 9 11 11 9 6 6 8 10 9 6 9 10 11 11 12 11 14 13 12 10 11 10 10 10 8 7 6 4 5 4 4 3 3 3 4 4 4 3 5 7 5 5 5 4
3 1 4 5 3 4 8 4 6 8 4 0 4 7 6 6 8 1 4 5 2 2 3 1 2 5 4 7 11 7 9 5 3 3 10 9 5 4 8 12 7 10 10 11 12 9 4 7 6 6 7 8 9 10 10 9 9 9 8 9 9 8 8 10 11 10 9 9 10 8 8 6 5 6 5 8 9 8 8 10 7 4 5 5 5 4
3 1 2 7 6 2 4 6 4 5 7 3 5 6 4 7 8 8 6 3 2 3 2 1 6 5 6 3 1 4 7 10 8 5 11 8 6 5 9 8 7 8 7 6 9 9 9 8 7 8 8 9 10 10 5 7 8 8 8 9 10 9 9 8 9 10 9 9 9 12 12 11 11 11 8 6 6 7 7 6 7 5 4 5 5 4
2 2 4 4 5 6 5 4 3 8 7 4 1 6 8 10 10 9 8 4 1 1 1 4 3 2 6 9 4 5 4 9 8 9 9 7 5 7 7 7 7 7 7 7 9 8 7 7 7 10 8 8 9 5 6 7 7 9 9 10 10 8 8 8 9 10 10 11 10 10 10 9 9 10 9 9 7 4 4 5 6 5 4 4 4 5
4 3 4 5 2 4 8 4 5 7 6 2 1 4 7 9 6 7 6 5 1 1 2 2 2 1 5 8 4 3 3 5 8 8 9 4 5 6 6 6 6 7 7 7 8 7 5 6 6 8 8 6 6 6 7 8 7 7 7 8 8 8 8 8 10 11 10 10 10 11 9 9 7 7 5 4 3 5 4 6 4 5 5 4 4 5
1 4 7 7 8 8 3 1 1 6 4 1 6 8 8 8 7 5 4 5 1 3 5 3 2 3 8 6 5 3 1 6 8 10 6 5 5 5 6 6 5 5 5 5 7 8 7 6 6 6 5 4 5 5 5 5 6 7 7 8 9 9 8 8 9 9 10 9 8 8 9 10 8 6 4 4 5 5 5 6 6 5 6 6 6 5
1 3 4 4 4 1 5 3 1 2 3 10 5 9 6 8 4 3 6 3 3 1 6 3 5 1 5 5 7 5 7 8 6 6 4 3 3 4 5 5 5 6 6 5 6 5 5 5 4 3 2 2 2 4 5 6 7 7 8 8 9 9 7 7 9 9 10 9 8 9 10 11 11 9 8 6 5 5 4 6 6 7 7 5 7 5
1 1 1 0 3 3 3 5 6 3 5 6 4 5 8 5 7 5 4 5 2 5 4 2 1 0 6 6 6 8 5 3 3 2 1 1 3 4 4 4 4 5 6 6 5 4 4 2 3 3 3 3 3 4 5 5 5 7 7 8 9 7 8 7 8 8 9 8 9 9 10 10 10 10 9 9 9 9 9 8 7 6 4 5 5 4
2 2 1 3 3 6 3 10 4 1 4 3 7 8 9 1 4 1 2 2 4 5 1 3 1 1 10 9 6 6 10 7 8 7 6 3 6 7 5 6 6 5 6 5 5 5 4 1 1 2 2 3 5 5 6 6 6 6 6 8 9 9 8 7 8 9 9 9 9 9 10 9 8 9 9 9 9 8 8 8 7 7 7 5 5 5
2 1 2 1 2 3 3 11 2 1 1 4 9 7 7 3 2 3 3 1 5 5 4 1 1 4 5 7 13 16 11 4 7 9 8 7 8 7 7 7 9 8 6 6 5 5 4 3 2 2 2 4 4 3 5 5 5 6 6 7 8 8 7 7 7 8 9 9 9 9 9 9 8 8 8 8 8 8 8 7 8 8 8 7 8 7
4 3 6 5 3 1 1 3 11 8 9 7 0 8 9 9 6 6 4 6 7 5 2 3 2 7 2 2 1 9 5 3 4 5 4 6 8 7 7 8 9 7 5 4 5 5 4 4 4 4 4 4 4 5 5 5 5 6 6 7 8 7 8 8 9 7 8 8 9 8 8 7 7 7 7 8 7 7 8 7 8 7 7 7 7 7
6 3 1 2 2 1 6 1 2 5 5 1 2 4 6 7 6 3 4 3 2 2 1 1 6 4 5 3 8 6 7 7 6 6 3 9 6 4 7 6 6 6 6 4 4 4 4 5 4 4 5 5 5 6 5 6 6 7 7 8 9 9 8 8 8 7 8 9 7 7 8 8 7 6 6 6 6 6 7 8 9 8 8 7 6 5
2 4 2 6 1 1 0 0 0 1 8 5 4 4 4 2 11 7 2 1 1 5 5 2 7 7 8 7 11 2 3 7 1 2 1 7 6 2 5 5 5 6 6 4 3 3 2 2 4 4 3 4 5 6 7 8 8 9 8 8 9 7 6 8 9 9 9 8 7 8 7 6 7 8 10 9 9 9 8 8 7 7 7 6 5 6
9 3 2 3 1 1 0 0 1 4 1 8 1 7 2 3 6 5 3 2 3 3 6 2 7 6 4 7 5 4 3 8 3 5 4 4 4 5 5 4 5 7 6 5 6 6 6 5 5 5 5 5 6 7 7 8 7 6 7 8 9 8 9 9 9 9 9 9 9 8 8 8 9 9 9 8 8 7 7 7 6 6 6 7 6 6
6 3 1 1 1 4 2 0 5 2 2 2 3 3 5 2 2 1 5 1 1 2 4 3 3 5 6 8 4 1 6 9 7 3 2 4 5 7 5 5 7 6 5 4 2 1 5 5 6 6 7 6 5 6 6 5 5 6 6 7 7 9 8 8 7 7 6 6 7 7 9 9 8 8 8 7 7 6 8 8 7 7 7 5 6 6
1 4 1 1 2 1 2 2 7 3 3 2 2 3 0 2 1 4 6 3 5 4 2 6 3 7 8 8 9 8 7 9 5 2 6 7 8 6 5 4 4 2 0 1 1 2 1 4 5 6 6 6 7 7 6 6 5 8 8 7 7 6 4 5 7 7 8 7 7 8 7 8 8 8 7 7 7 7 7 7 7 7 7 8 6 7
2 1 3 1 2 2 2 3 8 10 8 2 2 2 0 2 2 4 2 3 4 5 6 2 4 6 7 8 9 12 10 7 6 4 6 6 7 7 6 6 5 3 2 1 1 3 4 2 1 3 5 6 4 4 5 6 8 7 6 8 9 10 8 7 7 7 8 7 8 8 9 9 8 9 8 9 9 10 10 8 7 7 7 6 8 8
3 2 7 2 2 3 5 1 2 3 3 5 9 9 10 8 4 4 5 2 2 3 4 4 8 6 10 4 10 10 5 4 4 2 1 2 5 9 6 5 4 5 2 1 1 4 5 6 5 2 0 2 2 4 6 6 5 6 8 8 7 7 7 8 8 8 7 7 7 9 9 9 7 6 6 8 8 9 8 7 7 8 7 9 8 8
5 3 8 4 5 4 2 1 1 1 1 1 2 5 6 2 6 4 5 6 3 0 6 3 0 10 6 3 5 6 4 4 2 4 4 3 3 6 6 6 4 3 3 2 2 3 5 5 5 6 5 3 5 5 5 4 6 6 7 6 6 7 8 7 7 6 7 7 8 9 8 7 7 6 7 8 8 9 9 8 8 7 8 8 7 7
4 5 5 2 1 3 3 2 1 1 0 1 3 1 5 9 8 8 4 6 8 3 2 1 1 10 6 1 4 6 5 3 2 6 6 4 2 4 6 5 6 5 4 5 5 5 6 5 6 6 5 5 3 1 2 4 5 6 6 6 5 7 6 6 6 6 6 7 8 7 6 7 6 7 8 9 9 10 8 7 7 7 8 8 6 7
5 4 9 3 2 2 2 1 1 1 1 4 5 6 3 4 7 3 5 1 3 8 9 7 7 10 4 3 2 1 4 5 3 7 6 4 3 4 6 5 4 4 3 4 4 4 3 3 4 3 3 4 6 6 5 4 5 6 6 5 6 5 4 5 4 5 5 6 7 6 7 6 6 7 8 9 8 8 7 7 7 6 8 7 7 8
3 3 9 8 9 8 5 5 5 8 12 4 0 3 5 8 9 5 3 2 5 3 6 4 5 12 3 2 1 2 2 4 3 4 5 5 5 7 6 6 4 3 5 5 5 4 6 7 5 4 4 5 6 5 5 5 6 5 5 5 3 4 4 5 4 5 5 5 6 6 5 5 6 8 9 8 8 8 8 7 7 7 7 7 8 7
3 2 5 8 12 14 14 14 5 7 7 4 8 12 10 6 4 4 6 5 10 5 8 9 10 14 3 2 3 5 4 7 5 4 8 8 8 7 4 4 4 4 5 7 7 7 4 4 7 7 5 5 5 5 5 5 6 5 6 5 3 4 5 5 4 4 5 6 6 5 6 7 8 7 7 8 8 7 7 7 7 7 8 7 7 7
3 3 6 6 8 9 8 3 3 10 8 7 8 7 8 9 9 9 9 11 5 10 6 8 10 7 13 4 6 8 7 6 5 5 6 6 8 8 7 5 6 5 3 3 4 3 2 2 3 5 5 7 7 6 6 5 6 6 6 6 4 4 5 5 5 5 5 5 6 6 7 7 6 7 7 7 7 7 7 6 6 7 6 5 7 8
6 8 7 7 11 12 3 4 4 5 7 8 11 10 11 12 10 13 13 12 10 10 14 18 13 13 17 9 11 10 9 10 12 11 9 6 2 2 4 4 3 4 5 4 7 6 5 3 3 2 7 10 9 8 6 4 5 5 6 6 5 5 6 5 5 5 5 5 6 7 6 6 5 5 6 7 6 6 6 6 6 5 6 6 7 7
4 6 6 7 11 11 2 4 0 6 2 3 8 13 14 14 15 17 17 13 13 12 16 21 10 14 17 7 12 10 10 5 1 1 0 3 7 5 4 4 5 7 6 7 7 6 3 4 4 4 6 7 5 2 1 2 4 5 5 5 4 5 4 4 5 6 6 6 7 6 5 5 5 6 6 6 6 6 5 5 5 6 6 7 7 7
4 3 5 4 5 7 3 3 2 1 5 5 1 4 9 13 15 16 16 16 11 14 15 17 6 10 10 8 9 6 1 1 2 4 6 8 6 4 6 7 8 8 10 9 7 5 5 5 5 5 5 6 5 4 6 5 2 3 5 5 4 4 4 6 6 5 5 6 5 5 5 5 6 5 6 6 5 5 5 5 5 5 6 6 7 7
2 3 3 3 5 5 1 6 3 4 3 3 3 5 9 11 10 11 12 14 12 15 17 10 10 13 12 11 7 6 2 4 7 9 8 8 8 7 8 10 9 8 8 10 8 5 3 4 5 5 6 6 5 5 5 5 4 2 3 2 3 4 4 5 6 6 5 5 4 5 5 5 5 5 5 4 5 5 4 4 4 5 6 6 7 7
5 5 4 2 6 5 1 3 8 7 3 1 4 11 19 17 19 16 14 8 9 16 12 10 17 20 3 9 8 9 9 10 8 8 9 10 11 10 11 10 7 8 10 5 6 5 5 5 5 5 4 2 3 4 4 2 2 3 1 0 1 3 5 5 5 4 4 4 4 4 4 3 3 3 4 4 4 4 4 4 5 6 5 8 7 6
7 9 6 5 6 3 1 5 4 6 8 11 8 17 20 18 18 12 10 15 12 8 11 15 18 6 8 7 13 12 13 13 14 15 15 13 11 7 7 7 9 7 5 4 4 5 6 5 5 2 1 2 4 4 4 2 2 3 2 3 2 4 4 5 3 4 3 2 1 2 2 2 1 4 4 3 4 4 4 3 6 5 6 5 5 6
8 7 6 3 5 5 2 6 4 9 11 7 5 7 18 20 16 18 19 18 17 17 17 18 16 10 6 10 12 13 14 14 13 12 10 5 4 5 6 6 6 5 6 6 6 6 5 5 5 3 3 3 2 2 1 1 1 2 1 2 3 3 5 4 5 4 4 5 5 4 4 3 3 4 5 4 2 3 4 4 5 5 4 4 5 5
9 9 4 1 5 5 3 4 6 10 6 2 1 0 3 3 3 8 15 17 17 20 20 20 20 17 12 11 9 3 2 4 6 6 9 7 4 4 4 8 7 4 6 6 5 6 5 5 3 3 2 2 3 3 2 0 1 3 3 3 5 5 5 5 7 7 6 6 6 5 4 3 3 4 4 4 3 3 5 4 5 5 4 4 4 4
12 7 6 6 3 9 7 10 10 3 6 1 2 2 10 11 11 14 15 20 19 11 11 16 21 20 16 6 4 3 1 2 4 11 7 6 6 7 9 7 3 5 4 3 4 4 2 1 1 1 2 4 4 4 4 3 1 4 5 6 6 7 7 7 7 6 5 5 5 4 4 3 3 4 3 3 3 4 5 5 5 4 3 4 5 5
1 11 6 9 5 6 7 2 1 3 12 9 11 6 7 8 13 15 13 14 5 10 16 18 20 21 14 6 7 3 2 1 9 14 10 3 8 7 0 1 1 1 1 0 1 2 3 3 4 3 5 5 5 4 3 2 3 6 8 7 6 7 7 7 6 5 4 4 4 5 5 4 3 3 3 3 4 5 5 4 3 4 3 4 6 6
3 3 1 10 2 4 2 6 6 8 12 12 15 7 4 6 10 7 4 13 10 12 17 20 21 20 13 10 7 7 6 7 14 16 2 6 1 2 6 4 5 5 5 4 4 5 4 3 4 4 4 5 8 6 5 4 5 8 8 6 6 6 7 7 6 5 5 5 5 5 4 4 2 3 3 4 5 4 6 6 5 5 3 4 5 7
5 2 5 3 2 4 8 8 10 5 7 10 7 4 8 9 12 10 5 10 18 14 12 12 17 18 9 11 13 13 12 11 16 11 3 4 5 3 4 7 6 7 6 4 4 3 3 3 4 7 9 8 5 4 5 3 7 7 7 6 5 8 8 7 6 5 5 5 4 4 4 2 2 3 3 4 5 5 5 5 5 5 5 5 4 6
3 0 3 12 10 9 10 4 2 6 5 5 6 3 7 12 13 11 15 15 3 7 11 11 13 13 10 11 12 10 15 8 2 5 5 4 8 8 7 6 7 6 7 6 6 5 7 7 8 8 7 5 5 5 4 4 8 8 6 5 8 9 7 6 6 6 5 5 4 3 3 3 2 4 4 3 4 5 6 5 5 5 5 6 5 5
2 4 1 3 10 11 8 11 9 4 7 7 0 12 12 9 8 16 10 0 7 6 9 15 16 15 13 15 16 11 4 6 6 5 8 7 8 6 6 5 6 7 5 6 7 6 7 7 8 8 9 7 7 7 6 5 9 7 6 8 10 7 6 6 6 6 6 4 4 3 3 3 3 3 4 4 4 4 6 5 4 5 5 5 5 7
10 8 6 8 4 1 0 2 4 11 6 7 14 2 4 9 7 6 3 1 1 3 6 6 9 7 7 6 5 8 8 5 7 7 7 7 8 8 7 6 7 7 7 8 9 7 6 8 9 9 7 6 7 7 6 7 8 6 6 10 8 7 6 6 6 7 5 5 5 5 4 4 4 4 3 4 4 4 6 5 4 4 4 5 5 6
10 9 4 6 9 10 11 11 10 10 2 8 12 10 9 12 1 2 5 9 3 2 5 5 2 4 7 11 12 8 9 11 7 9 9 8 8 6 6 6 5 6 7 7 6 5 5 8 7 7 7 7 7 7 7 8 8 7 8 9 7 7 7 7 7 6 6 6 6 6 6 5 4 4 3 3 3 3 4 5 4 4 4 4 4 6
8 12 10 13 8 10 7 8 6 1 4 3 1 2 3 3 4 2 2 2 6 3 2 5 5 3 6 13 11 13 9 6 9 5 10 7 7 6 8 7 7 7 7 8 8 6 5 7 7 6 7 8 8 8 9 8 9 8 9 8 7 9 9 9 8 7 7 7 7 7 6 6 5 5 3 3 4 6 6 6 5 6 4 4 5 5
2 3 1 1 5 2 2 1 0 1 1 2 2 2 2 3 4 2 2 5 2 1 1 5 5 6 8 12 15 5 8 9 11 8 8 7 7 6 6 7 7 6 6 6 7 8 5 5 6 7 7 8 9 9 8 8 9 10 8 7 8 9 8 8 8 8 8 7 7 8 8 9 8 7 6 7 4 4 4 5 6 6 6 5 6 5
3 1 1 3 1 7 8 3 1 0 2 3 2 1 2 3 3 2 5 4 4 4 6 5 5 6 7 6 12 14 11 8 11 8 7 7 8 7 7 8 7 8 8 10 8 6 6 5 7 9 8 8 10 8 8 8 8 8 7 8 8 7 7 6 7 8 9 10 9 9 8 8 8 8 7 6 6 4 4 5 4 5 6 5 6 7
5 2 4 3 5 9 2 1 1 1 2 3 3 1 3 4 6 7 6 6 6 7 7 6 6 9 8 11 10 14 11 7 10 9 7 7 7 6 7 7 7 7 8 7 8 6 6 9 9 8 7 8 8 8 8 7 8 8 7 7 7 7 7 7 8 8 8 10 7 7 7 7 8 8 7 6 5 7 7 5 4 6 7 6 6 7
1 4 4 2 2 2 2 1 1 2 1 4 3 3 2 1 5 7 7 8 8 12 12 12 10 8 9 10 8 12 12 7 6 7 9 7 7 6 6 6 6 7 6 8 8 8 8 7 8 7 7 7 7 7 7 8 7 7 7 7 8 9 9 8 8 7 8 7 7 7 6 6 6 6 7 8 7 5 5 7 8 7 9 6 5 7
2 4 2 3 2 2 6 6 6 2 4 3 2 1 2 2 3 8 7 9 9 11 8 13 11 10 11 9 6 9 12 8 6 6 8 7 7 6 5 5 6 6 7 7 5 7 7 7 7 6 6 5 6 6 6 6 6 6 6 8 8 9 10 10 8 8 7 7 7 8 9 8 8 8 8 8 8 10 9 6 10 11 9 10 7 12
4 2 4 5 4 5 4 6 11 4 4 1 8 5 2 1 3 7 8 8 7 7 6 11 13 12 12 10 8 8 9 8 7 6 7 7 6 6 6 6 6 6 6 7 6 8 7 7 6 5 6 5 6 6 7 6 6 5 6 7 7 7 7 7 7 6 7 9 8 10 10 10 9 9 8 8 8 7 9 11 8 10 16 17 15 15
Wind_Direction
117 137 179 195 195 184 197 191 176 189 160 118 83 106 157 154 267 284 279 273 64 101 237 229 267 275 270 258 268 275 230 265 266 267 260 255 250 245 245 240 243 243 244 256 218 225 222 219 214 211 201 208 206 207 200 200 204 202 200 193 206 201 192 189 188 189 189 194 200 209 210 214 213 209 200 211 202 193 190 179 191 192 188 186 191 190
85 165 224 205 192 186 177 122 110 74 63 143 141 141 151 201 132 220 127 350 328 156 291 35 293 264 260 271 267 276 303 270 255 257 259 258 246 242 235 245 239 241 300 293 280 252 248 238 226 207 202 193 196 213 199 204 205 201 196 198 203 185 193 195 194 193 194 196 199 194 202 197 194 194 194 218 207 209 207 190 176 204 196 189 190 192
160 205 233 198 157 94 88 100 74 118 111 51 140 145 116 255 237 300 309 357 336 114 262 12 283 266 267 267 269 250 236 241 229 218 233 229 252 244 236 240 250 267 264 274 257 272 247 238 223 205 206 208 211 203 200 210 202 198 197 204 193 190 192 197 193 189 199 199 194 192 188 187 187 207 204 206 189 190 199 195 183 189 210 188 193 198
196 277 235 151 136 116 54 80 99 74 66 111 92 107 194 226 142 239 264 3 5 96 319 196 310 280 284 272 261 258 224 250 260 257 258 236 247 245 237 234 245 250 258 262 251 249 250 243 235 219 216 214 207 202 203 201 201 197 201 200 193 192 192 192 193 194 197 180 132 70 105 142 155 180 144 144 89 136 150 195 165 193 204 198 186 174
187 252 308 150 158 145 145 157 129 134 174 331 144 137 143 149 235 147 199 120 324 29 74 107 312 294 316 275 277 295 348 316 283 304 269 256 239 257 295 279 237 249 245 257 262 252 245 252 241 223 222 206 204 208 204 198 199 197 200 198 193 188 191 192 186 185 157 123 114 108 69 78 88 55 111 169 208 188 181 182 200 210 170 186 189 187
268 307 128 114 139 128 134 163 199 143 189 267 233 177 186 180 151 88 119 110 27 282 18 66 307 301 304 273 240 293 337 314 281 310 266 256 260 256 253 253 256 247 242 246 259 266 252 237 254 249 226 210 215 215 212 199 199 194 193 184 184 181 184 187 184 175 162 169 165 157 158 163 183 196 172 198 198 200 203 214 208 147 183 174 179 181
200 341 143 164 149 122 154 181 213 158 168 135 258 167 144 142 131 132 137 84 133 149 345 12 182 265 327 316 265 313 323 290 296 267 264 270 268 261 251 258 255 252 265 268 264 264 263 254 250 250 218 214 214 222 193 192 194 187 179 179 181 183 186 180 176 170 170 171 179 185 190 191 192 199 212 208 205 203 209 206 207 196 162 178 182 179
93 71 87 75 108 135 135 215 232 144 123 218 252 131 117 121 142 169 142 131 162 263 275 52 109 184 306 284 269 280 293 289 305 282 267 264 276 260 258 258 259 261 250 249 258 255 249 256 230 239 226 212 218 196 181 188 180 182 179 177 182 181 180 181 171 175 183 182 185 190 198 199 200 204 204 193 197 184 160 178 199 177 180 175 185 188
122 146 151 140 133 133 190 207 190 152 137 222 220 156 141 149 150 125 110 115 152 113 258 333 339 277 252 267 305 351 311 292 279 269 262 284 279 273 278 272 267 261 253 243 260 264 235 229 246 250 252 231 203 189 186 184 180 174 169 170 168 176 176 179 179 181 191 191 186 190 192 200 212 205 195 155 152 172 170 189 185 194 193 185 182 184
332 163 204 158 146 198 225 315 201 157 122 249 117 88 91 81 73 107 100 97 351 85 263 215 14 219 276 271 320 339 266 276 261 254 266 268 266 281 296 302 295 288 275 257 250 265 267 245 244 241 257 249 205 185 166 154 152 158 158 165 170 181 183 178 180 184 188 190 181 188 195 201 202 186 166 154 164 173 174 191 198 199 200 206 203 188
247 333 194 94 195 159 128 46 119 357 120 132 125 94 52 43 34 30 65 85 71 328 253 255 309 158 301 264 221 165 215 201 243 297 298 294 301 284 261 269 296 306 309 295 287 268 264 268 252 257 192 179 102 138 150 152 160 159 164 168 176 184 173 171 181 181 188 189 187 194 196 200 201 194 182 175 179 175 178 193 198 203 213 198 214 199
22 351 55 284 79 118 99 72 28 75 106 124 117 130 86 9 6 28 344 30 126 261 263 288 262 350 190 292 278 243 276 234 189 204 200 276 286 281 295 299 296 301 297 300 310 320 322 9 46 76 95 116 138 124 141 153 154 161 167 168 174 172 176 175 178 184 190 189 196 202 199 202 204 190 189 197 200 190 197 191 198 202 198 212 215 211
50 95 252 20 214 115 135 87 355 358 344 92 96 103 115 218 37 264 6 240 210 200 265 333 202 7 240 226 255 292 272 254 222 217 223 233 277 288 288 306 311 306 309 310 313 319 325 342 326 98 117 119 150 163 161 162 162 164 165 174 176 188 177 182 178 190 192 192 199 201 203 207 199 199 199 203 208 196 197 189 195 186 205 196 205 209
272 269 4 315 35 225 144 123 132 190 279 115 140 141 107 109 93 205 266 293 317 288 272 308 282 269 261 284 244 246 249 223 223 229 237 236 248 267 285 313 320 312 299 289 290 291 286 283 278 260 214 184 179 172 168 161 162 169 173 178 189 192 177 178 183 194 195 204 207 206 207 206 195 204 200 207 207 202 199 189 200 199 198 198 202 198
137 297 245 150 192 146 149 171 175 159 158 208 27 149 174 148 156 196 186 182 211 196 282 278 79 232 118 254 262 234 258 249 264 256 259 264 259 269 289 293 289 291 296 272 274 263 265 271 244 239 228 207 194 181 175 175 174 167 179 183 196 190 188 182 193 192 202 210 214 213 214 208 199 205 201 211 209 202 197 200 206 207 203 203 204 203
201 193 290 316 255 20 168 242 114 105 57 267 168 73 102 211 138 135 207 145 157 133 51 252 216 192 179 274 276 255 278 279 260 268 277 269 266 293 300 295 292 296 283 277 271 279 264 244 235 215 218 216 191 192 185 183 180 181 194 194 202 202 188 188 189 200 205 213 213 219 215 215 207 211 213 220 210 216 208 207 206 210 205 210 203 205
26 222 341 312 69 89 263 160 312 144 168 222 101 183 208 113 100 105 53 30 100 51 254 160 312 288 297 316 278 354 324 280 232 256 226 260 272 308 270 288 287 274 271 250 236 252 270 293 293 264 221 193 200 195 195 194 191 193 186 193 205 205 186 190 195 199 203 208 210 220 222 223 217 215 215 215 213 212 214 215 215 213 212 203 204 205
156 214 358 58 142 359 344 228 83 40 155 99 167 224 190 149 126 129 175 350 63 166 259 90 227 294 25 283 324 335 267 265 240 242 240 263 287 258 248 264 254 255 262 265 236 223 233 243 258 275 278 236 211 205 203 202 199 199 195 196 200 197 202 205 198 203 201 204 207 208 211 217 219 223 226 223 222 215 218 221 224 220 216 207 207 205
118 80 359 323 171 282 29 351 53 7 54 145 195 194 116 202 226 306 95 203 152 249 267 298 279 260 193 243 336 254 211 253 243 207 208 220 230 234 251 260 265 274 290 305 299 165 183 209 226 238 244 249 232 225 214 206 193 201 208 209 205 209 210 204 201 206 215 211 210 208 210 210 216 224 231 233 232 225 225 227 224 224 225 214 208 210
38 145 270 342 136 277 359 86 187 194 343 28 66 84 308 100 163 120 203 169 122 239 72 288 47 247 195 220 194 237 225 226 231 165 220 218 209 217 229 232 233 235 286 282 290 298 156 179 201 213 221 232 226 216 215 204 187 200 206 199 215 227 213 200 194 198 209 207 209 217 214 214 212 212 218 221 225 234 234 232 221 219 222 222 203 210
144 110 161 280 298 95 171 193 208 169 155 60 84 195 105 14 225 101 24 117 182 172 183 211 301 271 255 213 185 217 221 215 198 205 217 225 226 224 219 188 204 225 228 186 302 310 328 337 186 211 229 233 238 229 214 202 204 207 189 201 207 207 209 208 208 200 212 201 212 215 220 220 212 214 207 211 209 220 225 220 215 214 217 206 217 204
93 173 170 134 78 211 235 257 226 193 209 179 162 188 176 119 128 161 239 38 95 110 216 133 251 268 269 178 206 218 234 218 230 200 226 237 224 210 213 232 208 175 237 251 294 309 320 323 326 311 239 238 185 232 233 224 222 218 207 212 206 202 209 204 208 206 209 208 211 215 221 221 218 214 218 224 225 227 228 220 217 214 207 217 222 204
140 127 102 162 208 178 237 302 269 215 293 168 157 227 167 170 101 116 191 233 62 13 106 162 27 271 246 216 230 243 237 229 203 228 258 265 238 215 231 239 230 219 201 245 278 296 288 286 292 299 285 244 207 214 215 219 218 226 228 220 213 206 215 204 208 200 205 209 215 223 221 215 209 206 218 224 230 230 224 220 220 206 216 224 223 215
91 101 79 335 327 313 322 273 177 192 213 300 283 137 144 198 192 183 172 174 144 145 73 2 259 260 288 235 244 245 258 265 220 242 245 273 259 221 205 198 201 210 248 274 278 276 273 285 309 324 342 344 337 289 212 220 233 241 240 230 219 223 215 206 201 200 203 214 222 221 215 214 207 208 219 225 229 233 232 226 224 210 222 227 220 220
160 235 130 126 25 345 343 20 9 346 51 219 206 199 197 73 75 134 108 75 94 211 175 143 227 273 271 313 290 283 296 289 248 250 210 225 210 203 190 203 227 243 283 280 272 264 281 287 286 272 282 289 298 311 308 276 252 241 243 230 229 236 217 214 200 197 211 215 228 223 218 217 205 218 225 231 233 239 235 229 224 216 222 222 224 226
160 173 144 154 168 167 193 194 220 223 215 195 40 100 170 154 145 134 149 157 190 272 138 168 237 249 284 323 334 273 301 293 253 245 232 229 195 191 211 225 238 273 249 243 248 242 218 219 240 269 260 273 265 254 273 277 270 266 260 241 226 230 223 218 193 207 204 213 224 231 223 222 216 225 231 233 238 237 231 226 220 222 225 214 228 226
174 135 192 193 191 200 198 204 208 79 63 166 218 174 189 185 150 107 95 110 206 191 174 224 213 259 289 280 265 261 222 218 214 190 197 211 236 244 259 260 256 237 231 229 220 216 227 229 225 219 236 234 254 257 256 273 287 287 289 287 265 227 216 212 198 206 203 213 222 226 221 218 223 225 230 230 234 231 226 224 224 219 228 218 221 228
89 186 220 205 228 223 223 175 191 164 176 201 150 185 170 156 169 156 172 214 139 92 264 238 234 246 246 250 254 242 244 252 251 231 222 231 221 212 213 239 241 247 275 312 307 285 274 262 198 208 200 203 231 252 253 243 244 252 255 260 251 229 214 209 199 205 204 206 218 223 230 225 222 223 230 232 231 230 229 229 225 226 230 213 222 227
149 198 216 173 230 229 206 168 167 152 183 178 183 161 165 174 157 183 210 216 129 198 222 240 208 216 246 194 224 219 209 204 206 209 206 208 229 264 269 267 284 281 279 283 265 244 227 250 271 211 190 197 201 212 229 230 247 250 255 244 223 209 218 199 193 199 197 197 212 228 228 230 228 227 231 231 233 234 234 231 231 231 225 222 233 234
141 221 193 178 214 230 197 136 224 158 123 130 180 175 178 169 183 195 213 207 187 215 223 242 225 216 240 205 219 226 222 227 277 313 261 224 231 206 209 254 264 262 260 259 260 264 249 258 271 287 305 305 295 309 162 201 245 258 256 255 221 218 237 157 198 186 186 198 218 227 226 229 228 225 223 229 230 233 234 233 230 227 228 230 232 236
155 259 101 136 202 246 182 83 82 138 145 188 253 174 175 181 191 202 209 218 210 241 246 249 280 289 252 192 228 245 76 126 310 298 255 242 249 205 213 231 237 242 241 242 254 266 265 247 241 253 275 281 302 342 337 309 264 230 238 258 267 244 211 174 180 186 180 215 219 214 219 213 224 215 221 227 235 239 236 240 233 234 239 240 238 238
143 233 39 97 180 274 250 173 152 99 78 106 127 158 178 182 199 217 212 216 189 215 235 252 275 262 260 148 207 229 191 191 220 233 240 248 238 227 223 236 234 239 247 238 224 235 288 310 319 320 301 312 334 328 309 308 307 301 265 246 219 220 181 171 179 179 198 216 210 217 212 217 213 216 239 240 248 250 253 256 250 247 246 249 247 245
161 123 150 138 176 235 311 147 135 122 106 285 218 200 192 200 203 207 220 222 202 207 216 216 230 239 175 176 163 214 198 219 230 235 242 249 243 224 223 234 246 251 252 307 327 310 292 279 273 271 300 330 296 283 271 255 301 288 270 242 240 154 160 168 159 157 197 213 218 229 225 219 217 251 279 271 271 273 270 250 251 249 247 245 243 246
152 161 181 177 189 189 18 118 131 97 208 224 207 199 182 196 203 203 218 222 224 187 216 217 234 215 153 167 177 195 200 208 211 224 215 216 223 222 229 230 236 251 296 287 260 260 265 276 284 307 279 256 256 249 253 205 219 265 279 249 242 171 147 121 128 155 190 201 254 307 345 357 347 309 293 296 289 278 261 251 248 248 248 258 253 239
169 181 188 160 188 192 155 121 96 215 232 222 245 183 194 200 187 198 219 218 214 212 226 238 243 233 205 180 197 196 202 211 216 225 238 235 203 229 243 253 258 251 252 271 287 280 270 276 293 301 330 308 293 295 31 47 213 257 217 191 127 97 106 108 132 84 42 28 12 9 3 1 334 295 298 295 287 272 258 253 263 258 250 244 248 242
172 173 134 158 126 55 97 153 206 236 223 275 344 206 157 146 194 203 247 241 225 211 210 227 237 238 216 214 221 260 243 276 317 282 253 251 191 199 207 245 242 200 232 236 240 269 281 286 281 309 314 344 42 53 64 37 269 157 116 91 89 93 77 76 60 43 32 24 11 2 342 340 304 292 294 295 294 277 272 264 257 265 257 246 250 247
176 144 159 197 195 189 177 193 218 337 336 274 202 211 161 182 179 183 218 243 229 209 199 225 238 239 233 201 168 244 353 13 316 278 252 209 224 219 216 242 227 215 228 244 208 252 309 352 52 355 103 70 74 59 26 337 51 111 87 64 51 65 57 60 57 39 25 13 347 334 325 302 285 295 295 292 292 280 274 276 277 268 239 256 260 261
160 173 203 179 233 139 134 203 342 227 237 237 225 221 209 193 184 188 191 256 229 193 204 216 232 238 229 145 167 168 80 61 270 256 242 197 217 224 194 51 58 87 124 227 30 48 40 42 57 52 97 97 68 39 7 358 82 82 70 64 54 62 56 57 43 26 13 355 331 323 322 314 293 284 286 291 284 283 283 272 272 275 249 255 276 273
25 85 143 188 167 118 190 199 199 201 231 226 234 218 178 134 117 103 151 246 248 190 202 203 225 235 221 156 179 135 112 214 240 250 167 183 208 70 100 63 75 88 80 75 105 102 101 84 83 90 79 69 51 8 7 28 69 79 77 69 66 62 53 35 15 6 352 334 315 311 299 288 281 273 288 297 292 295 299 300 294 287 281 262 262 267
143 175 111 169 163 205 179 205 224 202 235 244 228 178 174 134 115 92 187 247 247 217 196 197 215 226 208 165 163 176 180 220 238 253 97 92 87 61 110 121 102 89 67 73 60 82 90 111 98 64 52 47 19 350 16 41 69 76 79 71 65 49 32 7 347 325 320 313 310 296 296 290 295 295 296 298 301 302 290 298 307 297 287 277 262 271
165 358 192 206 201 208 195 248 345 295 281 242 211 153 142 142 127 171 214 230 252 116 184 195 209 216 194 169 165 183 211 218 213 102 118 103 85 66 56 64 79 79 82 68 60 69 81 73 79 79 68 49 22 19 25 54 69 66 62 56 44 30 3 340 327 332 323 312 311 314 312 312 309 312 306 287 290 298 303 296 282 286 281 279 274 266
220 150 309 170 210 206 205 209 227 246 232 178 314 157 157 114 204 210 224 145 144 193 192 189 199 207 194 174 187 195 126 103 118 80 77 71 92 100 79 81 82 71 68 75 64 61 73 77 77 75 60 45 42 36 36 58 70 62 50 44 32 1 333 333 333 328 332 335 340 338 339 332 323 303 294 301 295 294 283 276 265 266 271 273 281 286
184 169 184 195 202 27 66 209 235 246 255 160 116 67 264 197 232 199 160 251 176 199 189 216 206 210 145 168 159 121 131 100 102 103 93 92 90 87 82 76 69 67 55 49 45 33 68 79 72 67 66 44 43 40 36 59 67 54 46 41 12 345 341 339 340 341 341 338 339 345 337 335 326 318 300 288 276 270 286 285 289 280 274 282 287 284
162 188 165 211 184 199 195 205 211 225 153 134 149 205 197 205 200 183 155 186 228 189 174 165 158 169 160 145 142 127 125 119 98 111 101 87 90 89 82 75 72 68 64 55 53 33 51 77 73 72 61 49 42 39 37 50 57 48 44 26 354 349 348 348 348 338 343 345 342 340 338 332 320 301 288 281 282 272 282 296 295 295 290 291 286 293
190 202 175 205 184 204 207 211 228 246 165 182 21 21 313 345 357 188 142 154 160 223 179 140 170 167 158 135 130 134 121 123 126 124 114 117 100 92 80 68 60 59 54 51 41 30 45 68 66 63 56 47 40 36 37 35 47 40 36 12 3 0 356 348 343 343 343 344 338 337 330 325 321 317 315 318 321 326 321 317 328 319 310 301 294 284
317 226 34 163 226 93 358 171 312 64 16 348 24 355 327 323 0 36 125 123 8 340 163 160 156 139 135 135 124 107 119 136 120 115 106 102 97 83 82 72 59 51 50 47 41 32 41 55 61 53 50 41 38 35 36 34 38 38 21 13 12 3 352 341 341 342 341 337 338 336 333 332 330 330 331 325 322 312 298 299 307 302 302 302 286 283
252 156 145 193 123 146 236 177 121 358 14 22 348 28 51 41 24 41 79 70 90 76 72 57 102 108 117 115 120 126 125 128 112 107 105 99 90 80 71 70 60 52 43 43 29 25 34 45 50 45 37 37 25 29 30 36 39 40 29 23 9 357 344 338 347 342 346 344 338 334 332 331 328 325 324 322 317 302 287 282 280 278 282 280 283 284
289 190 189 221 175 188 250 48 79 55 56 25 13 337 30 38 60 55 68 76 80 66 66 63 78 84 93 94 110 114 112 113 116 117 106 92 87 75 66 59 55 55 49 50 38 32 43 42 43 37 37 37 19 16 23 30 35 40 35 17 0 349 348 358 3 350 338 331 325 323 323 320 312 311 309 308 311 315 313 288 268 279 273 274 277 283
225 105 235 163 137 356 80 149 230 209 96 72 41 42 27 32 99 87 81 84 85 82 73 58 47 67 81 93 97 106 98 79 84 105 103 97 83 71 61 60 51 53 45 42 35 36 43 41 40 35 33 33 21 17 17 20 26 40 33 17 5 2 2 356 348 339 332 327 323 316 314 306 306 306 311 311 308 284 265 292 297 284 282 254 231 248
102 205 156 93 78 175 198 204 156 145 247 170 213 107 76 50 86 104 99 89 86 90 87 87 65 54 61 54 71 95 102 100 81 91 92 84 77 72 63 59 61 54 51 44 40 41 46 46 45 39 37 33 29 19 16 11 23 39 30 20 9 7 4 351 339 337 338 335 329 325 324 324 321 321 317 314 311 312 304 255 255 269 266 282 252 243
184 210 146 190 189 239 245 190 176 132 65 51 142 145 108 30 96 97 88 92 85 81 95 104 102 74 59 46 33 76 93 98 92 86 87 76 65 54 53 54 53 53 46 32 31 30 29 26 24 28 35 42 33 22 10 7 6 38 31 30 10 4 351 340 335 330 335 337 336 331 324 319 315 313 307 302 302 299 300 308 297 271 269 269 271 271